Time,TemperatureF,DewpointF,PressureIn,WindDirection,WindDirectionDegrees,WindSpeedMPH,WindSpeedGustMPH,Humidity,HourlyPrecipIn,Conditions,Clouds,dailyrainin,SoftwareType,DateUTC
2013-03-01 00:02:00,26.0,21.6,30.27,NW,321,11.0,14.0,83,0.00,,SKC,0.00,VWS V14.01,2013-03-01 06:02:00,
2013-03-01 00:07:00,26.0,21.3,30.27,NNW,335,5.0,10.0,82,0.00,,SKC,0.00,VWS V14.01,2013-03-01 06:07:00,
2013-03-01 00:12:00,26.0,21.6,30.27,NNW,334,7.0,9.0,83,0.00,,SKC,0.00,VWS V14.01,2013-03-01 06:12:00,
2013-03-01 00:17:00,26.0,21.6,30.27,NNW,329,4.0,6.0,83,0.00,,SKC,0.00,VWS V14.01,2013-03-01 06:17:00,
2013-03-01 00:22:00,26.1,21.6,30.27,NNW,334,4.0,7.0,83,0.00,,SKC,0.00,VWS V14.01,2013-03-01 06:22:00,
2013-03-01 00:28:00,26.1,21.6,30.27,NNW,331,5.0,5.0,83,0.00,,SKC,0.00,VWS V14.01,2013-03-01 06:28:00,
2013-03-01 00:33:00,26.1,21.9,30.28,NW,320,10.0,10.0,84,0.00,,SKC,0.00,VWS V14.01,2013-03-01 06:33:00,
2013-03-01 00:38:00,26.0,21.8,30.28,NNW,342,10.0,10.0,84,0.00,,SKC,0.00,VWS V14.01,2013-03-01 06:38:00,
2013-03-01 00:43:00,26.0,21.8,30.28,NNW,332,10.0,10.0,84,0.00,,SKC,0.00,VWS V14.01,2013-03-01 06:43:00,
2013-03-01 00:48:00,25.8,21.4,30.28,NW,321,10.0,14.0,83,0.00,,SKC,0.00,VWS V14.01,2013-03-01 06:48:00,
2013-03-01 00:53:00,25.7,21.3,30.28,NNW,343,12.0,14.0,83,0.00,,SKC,0.00,VWS V14.01,2013-03-01 06:53:00,
2013-03-01 01:29:00,25.8,21.1,30.28,North,355,13.0,13.0,82,0.00,,SKC,0.00,VWS V14.01,2013-03-01 07:29:00,
2013-03-01 01:34:00,25.8,21.1,30.28,NW,324,8.0,10.0,82,0.00,,SKC,0.00,VWS V14.01,2013-03-01 07:34:00,
2013-03-01 01:39:00,25.8,21.1,30.28,NNW,345,6.0,6.0,82,0.00,,SKC,0.00,VWS V14.01,2013-03-01 07:39:00,
2013-03-01 01:44:00,25.8,21.1,30.28,NNW,332,6.0,11.0,82,0.00,,SKC,0.00,VWS V14.01,2013-03-01 07:44:00,
2013-03-01 01:49:00,25.8,21.1,30.28,NW,324,8.0,9.0,82,0.00,,SKC,0.00,VWS V14.01,2013-03-01 07:49:00,
2013-03-01 01:54:00,25.8,21.1,30.29,NNW,329,7.0,10.0,82,0.00,,SKC,0.00,VWS V14.01,2013-03-01 07:54:00,
2013-03-01 01:59:00,25.8,21.1,30.28,NNW,336,10.0,11.0,82,0.00,,SKC,0.00,VWS V14.01,2013-03-01 07:59:00,
2013-03-01 02:04:00,25.8,21.1,30.28,NNW,336,6.0,11.0,82,0.00,,SKC,0.00,VWS V14.01,2013-03-01 08:04:00,
2013-03-01 02:09:00,25.9,21.2,30.28,NNW,337,7.0,13.0,82,0.00,,SKC,0.00,VWS V14.01,2013-03-01 08:09:00,
2013-03-01 02:14:00,25.9,21.2,30.28,NNW,336,5.0,10.0,82,0.00,,SKC,0.00,VWS V14.01,2013-03-01 08:14:00,
2013-03-01 02:19:00,25.9,21.2,30.28,NNW,338,7.0,10.0,82,0.00,,SKC,0.00,VWS V14.01,2013-03-01 08:19:00,
2013-03-01 02:24:00,25.8,21.1,30.28,NNW,335,4.0,7.0,82,0.00,,SKC,0.00,VWS V14.01,2013-03-01 08:24:00,
2013-03-01 02:29:00,25.8,21.4,30.28,NNW,331,8.0,9.0,83,0.00,,SKC,0.00,VWS V14.01,2013-03-01 08:29:00,
2013-03-01 02:34:00,25.8,21.4,30.28,NNW,336,6.0,11.0,83,0.00,,SKC,0.00,VWS V14.01,2013-03-01 08:34:00,
2013-03-01 02:39:00,25.9,21.5,30.28,NNW,340,7.0,12.0,83,0.00,,SKC,0.00,VWS V14.01,2013-03-01 08:39:00,
2013-03-01 02:44:00,25.8,21.4,30.28,NNW,337,6.0,10.0,83,0.00,,SKC,0.00,VWS V14.01,2013-03-01 08:44:00,
2013-03-01 02:50:00,25.9,21.5,30.28,NNW,341,11.0,14.0,83,0.00,,SKC,0.00,VWS V14.01,2013-03-01 08:50:00,
2013-03-01 02:55:00,25.8,21.4,30.28,NNW,327,9.0,14.0,83,0.00,,SKC,0.00,VWS V14.01,2013-03-01 08:55:00,
2013-03-01 03:00:00,25.8,21.1,30.28,NW,316,7.0,11.0,82,0.00,,SKC,0.00,VWS V14.01,2013-03-01 09:00:00,
2013-03-01 03:05:00,25.8,21.1,30.28,NNW,332,12.0,13.0,82,0.00,,SKC,0.00,VWS V14.01,2013-03-01 09:05:00,
2013-03-01 03:10:00,25.8,21.1,30.28,NNW,329,4.0,10.0,82,0.00,,SKC,0.00,VWS V14.01,2013-03-01 09:10:00,
2013-03-01 03:15:00,25.8,21.1,30.27,NNW,328,6.0,10.0,82,0.00,,SKC,0.00,VWS V14.01,2013-03-01 09:15:00,
2013-03-01 03:20:00,25.8,21.1,30.27,NNW,342,10.0,11.0,82,0.00,,SKC,0.00,VWS V14.01,2013-03-01 09:20:00,
2013-03-01 03:25:00,25.8,21.1,30.27,NNW,343,7.0,9.0,82,0.00,,SKC,0.00,VWS V14.01,2013-03-01 09:25:00,
2013-03-01 03:30:00,25.7,21.0,30.28,NNW,327,11.0,12.0,82,0.00,,SKC,0.00,VWS V14.01,2013-03-01 09:30:00,
2013-03-01 03:35:00,25.7,21.0,30.27,NNW,329,11.0,11.0,82,0.00,,SKC,0.00,VWS V14.01,2013-03-01 09:35:00,
2013-03-01 03:40:00,25.7,21.0,30.27,NW,322,7.0,9.0,82,0.00,,SKC,0.00,VWS V14.01,2013-03-01 09:40:00,
2013-03-01 03:45:00,25.7,21.0,30.28,NW,323,9.0,11.0,82,0.00,,SKC,0.00,VWS V14.01,2013-03-01 09:45:00,
2013-03-01 03:50:00,25.7,21.0,30.28,NNW,328,10.0,10.0,82,0.00,,SKC,0.00,VWS V14.01,2013-03-01 09:50:00,
2013-03-01 03:55:00,25.6,21.2,30.27,NW,323,10.0,14.0,83,0.00,,SKC,0.00,VWS V14.01,2013-03-01 09:55:00,
2013-03-01 04:00:00,25.6,21.2,30.27,NNW,340,9.0,11.0,83,0.00,,SKC,0.00,VWS V14.01,2013-03-01 10:00:00,
2013-03-01 04:05:00,25.6,21.2,30.27,NNW,331,9.0,11.0,83,0.00,,SKC,0.00,VWS V14.01,2013-03-01 10:05:00,
2013-03-01 04:10:00,25.5,21.1,30.28,NNW,328,11.0,14.0,83,0.00,,SKC,0.00,VWS V14.01,2013-03-01 10:10:00,
2013-03-01 04:15:00,25.5,21.1,30.28,NNW,332,9.0,12.0,83,0.00,,SKC,0.00,VWS V14.01,2013-03-01 10:15:00,
2013-03-01 04:21:00,25.4,21.0,30.28,NW,325,6.0,13.0,83,0.00,,SKC,0.00,VWS V14.01,2013-03-01 10:21:00,
2013-03-01 04:26:00,25.4,21.0,30.28,NW,324,7.0,8.0,83,0.00,,SKC,0.00,VWS V14.01,2013-03-01 10:26:00,
2013-03-01 04:31:00,25.4,21.0,30.28,NNW,330,8.0,11.0,83,0.00,,SKC,0.00,VWS V14.01,2013-03-01 10:31:00,
2013-03-01 04:36:00,25.3,20.9,30.28,NNW,327,7.0,10.0,83,0.00,,SKC,0.00,VWS V14.01,2013-03-01 10:36:00,
2013-03-01 04:41:00,25.3,20.9,30.28,NW,321,8.0,11.0,83,0.00,,SKC,0.00,VWS V14.01,2013-03-01 10:41:00,
2013-03-01 04:46:00,25.3,20.9,30.28,NNW,337,14.0,14.0,83,0.00,,SKC,0.00,VWS V14.01,2013-03-01 10:46:00,
2013-03-01 04:51:00,25.3,20.9,30.28,NW,317,9.0,12.0,83,0.00,,SKC,0.00,VWS V14.01,2013-03-01 10:51:00,
2013-03-01 04:56:00,25.2,20.5,30.28,NNW,338,9.0,11.0,82,0.00,,SKC,0.00,VWS V14.01,2013-03-01 10:56:00,
2013-03-01 05:01:00,25.2,20.5,30.28,NNW,334,12.0,12.0,82,0.00,,SKC,0.00,VWS V14.01,2013-03-01 11:01:00,
2013-03-01 05:06:00,25.2,20.5,30.29,NNW,329,11.0,14.0,82,0.00,,SKC,0.00,VWS V14.01,2013-03-01 11:06:00,
2013-03-01 05:11:00,25.1,20.4,30.29,NW,320,10.0,16.0,82,0.00,,SKC,0.00,VWS V14.01,2013-03-01 11:11:00,
2013-03-01 05:16:00,25.0,20.3,30.29,NW,320,6.0,10.0,82,0.00,,SKC,0.00,VWS V14.01,2013-03-01 11:16:00,
2013-03-01 05:21:00,24.9,20.2,30.28,NW,320,9.0,14.0,82,0.00,,SKC,0.00,VWS V14.01,2013-03-01 11:21:00,
2013-03-01 05:26:00,24.8,19.8,30.29,NW,325,10.0,12.0,81,0.00,,SKC,0.00,VWS V14.01,2013-03-01 11:26:00,
2013-03-01 05:31:00,24.8,19.8,30.28,NW,307,11.0,12.0,81,0.00,,SKC,0.00,VWS V14.01,2013-03-01 11:31:00,
2013-03-01 05:36:00,24.7,19.7,30.29,NW,324,12.0,12.0,81,0.00,,SKC,0.00,VWS V14.01,2013-03-01 11:36:00,
2013-03-01 05:41:00,24.7,19.7,30.29,NNW,340,12.0,12.0,81,0.00,,SKC,0.00,VWS V14.01,2013-03-01 11:41:00,
2013-03-01 05:46:00,24.7,19.7,30.29,NW,318,7.0,14.0,81,0.00,,SKC,0.00,VWS V14.01,2013-03-01 11:46:00,
2013-03-01 05:51:00,24.7,20.0,30.29,NW,326,7.0,14.0,82,0.00,,SKC,0.00,VWS V14.01,2013-03-01 11:51:00,
2013-03-01 05:57:00,24.6,19.6,30.29,NW,325,11.0,14.0,81,0.00,,SKC,0.00,VWS V14.01,2013-03-01 11:57:00,
2013-03-01 06:02:00,24.6,19.6,30.29,NNW,335,6.0,10.0,81,0.00,,SKC,0.00,VWS V14.01,2013-03-01 12:02:00,
2013-03-01 06:07:00,24.5,19.8,30.29,NNW,330,10.0,10.0,82,0.00,,SKC,0.00,VWS V14.01,2013-03-01 12:07:00,
2013-03-01 06:12:00,24.5,19.8,30.29,NNW,327,7.0,9.0,82,0.00,,SKC,0.00,VWS V14.01,2013-03-01 12:12:00,
2013-03-01 06:17:00,24.5,19.8,30.29,NW,309,13.0,13.0,82,0.00,,SKC,0.00,VWS V14.01,2013-03-01 12:17:00,
2013-03-01 06:22:00,24.4,19.7,30.29,NNW,328,9.0,11.0,82,0.00,,SKC,0.00,VWS V14.01,2013-03-01 12:22:00,
2013-03-01 06:27:00,24.4,19.7,30.29,NW,315,11.0,11.0,82,0.00,,SKC,0.00,VWS V14.01,2013-03-01 12:27:00,
2013-03-01 06:32:00,24.4,19.7,30.29,NW,323,11.0,13.0,82,0.00,,SKC,0.00,VWS V14.01,2013-03-01 12:32:00,
2013-03-01 06:37:00,24.3,19.6,30.29,NW,325,12.0,12.0,82,0.00,,SKC,0.00,VWS V14.01,2013-03-01 12:37:00,
2013-03-01 06:42:00,24.3,19.6,30.30,NW,325,14.0,14.0,82,0.00,,SKC,0.00,VWS V14.01,2013-03-01 12:42:00,
2013-03-01 06:47:00,24.2,19.8,30.29,NW,321,13.0,13.0,83,0.00,,SKC,0.00,VWS V14.01,2013-03-01 12:47:00,
2013-03-01 06:52:00,24.2,19.8,30.30,NW,320,9.0,11.0,83,0.00,,SKC,0.00,VWS V14.01,2013-03-01 12:52:00,
2013-03-01 06:57:00,24.1,19.7,30.30,NW,317,10.0,14.0,83,0.00,,SKC,0.00,VWS V14.01,2013-03-01 12:57:00,
2013-03-01 07:02:00,24.1,19.7,30.30,NW,325,11.0,12.0,83,0.00,,SKC,0.00,VWS V14.01,2013-03-01 13:02:00,
2013-03-01 07:07:00,24.1,19.7,30.30,NW,315,13.0,13.0,83,0.00,,SKC,0.00,VWS V14.01,2013-03-01 13:07:00,
2013-03-01 07:12:00,24.1,19.7,30.30,NW,319,11.0,12.0,83,0.00,,SKC,0.00,VWS V14.01,2013-03-01 13:12:00,
2013-03-01 07:17:00,24.1,19.7,30.30,NW,322,12.0,14.0,83,0.00,,SKC,0.00,VWS V14.01,2013-03-01 13:17:00,
2013-03-01 07:22:00,24.1,19.7,30.30,NW,304,11.0,11.0,83,0.00,,SKC,0.00,VWS V14.01,2013-03-01 13:22:00,
2013-03-01 07:27:00,24.1,19.7,30.30,NW,315,14.0,14.0,83,0.00,,SKC,0.00,VWS V14.01,2013-03-01 13:27:00,
2013-03-01 07:32:00,24.2,19.8,30.31,NW,323,7.0,11.0,83,0.00,,SKC,0.00,VWS V14.01,2013-03-01 13:32:00,
2013-03-01 07:37:00,24.2,19.8,30.31,WNW,297,6.0,10.0,83,0.00,,SKC,0.00,VWS V14.01,2013-03-01 13:37:00,
2013-03-01 07:42:00,24.2,20.1,30.31,NW,316,10.0,13.0,84,0.00,,SKC,0.00,VWS V14.01,2013-03-01 13:42:00,
2013-03-01 07:47:00,24.3,20.2,30.31,NW,314,14.0,18.0,84,0.00,,SKC,0.00,VWS V14.01,2013-03-01 13:47:00,
2013-03-01 07:52:00,24.3,20.2,30.31,NW,317,10.0,12.0,84,0.00,,SKC,0.00,VWS V14.01,2013-03-01 13:52:00,
2013-03-01 07:57:00,24.4,20.3,30.32,NNW,335,10.0,12.0,84,0.00,,SKC,0.00,VWS V14.01,2013-03-01 13:57:00,
2013-03-01 08:02:00,24.4,20.3,30.32,NNW,331,9.0,14.0,84,0.00,,SKC,0.00,VWS V14.01,2013-03-01 14:02:00,
2013-03-01 08:07:00,24.5,20.4,30.32,NW,311,10.0,12.0,84,0.00,,SKC,0.00,VWS V14.01,2013-03-01 14:07:00,
2013-03-01 08:12:00,24.6,20.5,30.32,NNW,333,12.0,14.0,84,0.00,,SKC,0.00,VWS V14.01,2013-03-01 14:12:00,
2013-03-01 08:17:00,24.7,20.6,30.32,NW,319,11.0,11.0,84,0.00,,SKC,0.00,VWS V14.01,2013-03-01 14:17:00,
2013-03-01 08:22:00,24.8,20.7,30.33,NW,321,10.0,10.0,84,0.00,,SKC,0.00,VWS V14.01,2013-03-01 14:22:00,
2013-03-01 08:27:00,24.8,20.7,30.32,NNW,332,13.0,17.0,84,0.00,,SKC,0.00,VWS V14.01,2013-03-01 14:27:00,
2013-03-01 08:32:00,24.8,20.7,30.32,NNW,327,6.0,13.0,84,0.00,,SKC,0.00,VWS V14.01,2013-03-01 14:32:00,
2013-03-01 08:37:00,24.9,20.8,30.32,NNW,333,11.0,11.0,84,0.00,,SKC,0.00,VWS V14.01,2013-03-01 14:37:00,
2013-03-01 08:42:00,25.0,20.9,30.32,NW,313,11.0,11.0,84,0.00,,SKC,0.00,VWS V14.01,2013-03-01 14:42:00,
2013-03-01 08:47:00,25.0,20.9,30.32,NNW,332,10.0,11.0,84,0.00,,SKC,0.00,VWS V14.01,2013-03-01 14:47:00,
2013-03-01 08:52:00,25.1,21.0,30.33,NNW,331,11.0,11.0,84,0.00,,SKC,0.00,VWS V14.01,2013-03-01 14:52:00,
2013-03-01 08:57:00,25.1,21.0,30.33,NNW,336,11.0,11.0,84,0.00,,SKC,0.00,VWS V14.01,2013-03-01 14:57:00,
2013-03-01 09:02:00,25.2,21.0,30.33,NW,325,9.0,11.0,84,0.00,,SKC,0.00,VWS V14.01,2013-03-01 15:02:00,
2013-03-01 09:07:00,25.2,21.0,30.33,NNW,330,10.0,12.0,84,0.00,,SKC,0.00,VWS V14.01,2013-03-01 15:07:00,
2013-03-01 09:13:00,25.2,21.0,30.33,NW,321,12.0,14.0,84,0.00,,SKC,0.00,VWS V14.01,2013-03-01 15:13:00,
2013-03-01 09:18:00,25.4,21.5,30.33,NW,320,11.0,11.0,85,0.00,,SKC,0.00,VWS V14.01,2013-03-01 15:18:00,
2013-03-01 09:23:00,25.5,21.6,30.33,NW,316,12.0,12.0,85,0.00,,SKC,0.00,VWS V14.01,2013-03-01 15:23:00,
2013-03-01 09:28:00,25.6,21.7,30.33,NNW,335,11.0,12.0,85,0.00,,SKC,0.00,VWS V14.01,2013-03-01 15:28:00,
2013-03-01 09:33:00,25.7,21.8,30.34,NNW,342,5.0,11.0,85,0.00,,SKC,0.00,VWS V14.01,2013-03-01 15:33:00,
2013-03-01 09:38:00,25.8,22.2,30.33,NW,325,11.0,11.0,86,0.00,,SKC,0.00,VWS V14.01,2013-03-01 15:38:00,
2013-03-01 09:43:00,26.0,22.4,30.33,NNW,331,11.0,12.0,86,0.00,,SKC,0.00,VWS V14.01,2013-03-01 15:43:00,
2013-03-01 09:48:00,26.1,22.5,30.33,NNW,328,9.0,11.0,86,0.00,,SKC,0.00,VWS V14.01,2013-03-01 15:48:00,
2013-03-01 09:53:00,26.3,22.7,30.33,NNW,329,12.0,12.0,86,0.00,,SKC,0.00,VWS V14.01,2013-03-01 15:53:00,
2013-03-01 09:58:00,26.4,22.8,30.34,NNW,347,12.0,13.0,86,0.00,,SKC,0.00,VWS V14.01,2013-03-01 15:58:00,
2013-03-01 10:03:00,26.5,22.9,30.34,NNW,336,5.0,12.0,86,0.00,,SKC,0.00,VWS V14.01,2013-03-01 16:03:00,
2013-03-01 10:08:00,26.7,23.1,30.34,NNW,333,10.0,13.0,86,0.00,,SKC,0.00,VWS V14.01,2013-03-01 16:08:00,
2013-03-01 10:13:00,26.7,22.8,30.34,NW,325,11.0,11.0,85,0.00,,SKC,0.00,VWS V14.01,2013-03-01 16:13:00,
2013-03-01 10:18:00,26.7,23.1,30.34,NNW,344,13.0,14.0,86,0.00,,SKC,0.00,VWS V14.01,2013-03-01 16:18:00,
2013-03-01 10:23:00,26.9,23.0,30.34,NNW,340,13.0,13.0,85,0.00,,SKC,0.00,VWS V14.01,2013-03-01 16:23:00,
2013-03-01 10:28:00,26.9,23.0,30.34,NNW,332,7.0,10.0,85,0.00,,SKC,0.00,VWS V14.01,2013-03-01 16:28:00,
2013-03-01 10:33:00,27.1,23.2,30.34,NNW,340,7.0,11.0,85,0.00,,SKC,0.00,VWS V14.01,2013-03-01 16:33:00,
2013-03-01 10:38:00,27.2,23.3,30.34,NNW,339,11.0,14.0,85,0.00,,SKC,0.00,VWS V14.01,2013-03-01 16:38:00,
2013-03-01 10:43:00,27.2,23.0,30.34,NNW,331,5.0,12.0,84,0.00,,SKC,0.00,VWS V14.01,2013-03-01 16:43:00,
2013-03-01 10:48:00,27.5,23.6,30.34,NNW,331,9.0,14.0,85,0.00,,SKC,0.00,VWS V14.01,2013-03-01 16:48:00,
2013-03-01 10:53:00,27.8,23.9,30.34,NNW,335,6.0,16.0,85,0.00,,SKC,0.00,VWS V14.01,2013-03-01 16:53:00,
2013-03-01 10:58:00,28.2,24.0,30.34,NNW,333,10.0,12.0,84,0.00,,SKC,0.00,VWS V14.01,2013-03-01 16:58:00,
2013-03-01 11:03:00,28.7,24.5,30.34,NW,326,12.0,12.0,84,0.00,,SKC,0.00,VWS V14.01,2013-03-01 17:03:00,
2013-03-01 11:08:00,29.4,24.9,30.34,NW,325,12.0,16.0,83,0.00,,SKC,0.00,VWS V14.01,2013-03-01 17:08:00,
2013-03-01 11:13:00,29.9,25.1,30.34,NNW,346,6.0,18.0,82,0.00,,SKC,0.00,VWS V14.01,2013-03-01 17:13:00,
2013-03-01 11:18:00,30.2,24.8,30.34,North,355,10.0,13.0,80,0.00,,SKC,0.00,VWS V14.01,2013-03-01 17:18:00,
2013-03-01 11:23:00,29.9,23.9,30.33,NNW,347,6.0,14.0,78,0.00,,SKC,0.00,VWS V14.01,2013-03-01 17:23:00,
2013-03-01 11:28:00,29.6,23.3,30.33,North,355,10.0,15.0,77,0.00,,SKC,0.00,VWS V14.01,2013-03-01 17:28:00,
2013-03-01 11:33:00,29.4,23.1,30.33,North,355,13.0,13.0,77,0.00,,SKC,0.00,VWS V14.01,2013-03-01 17:33:00,
2013-03-01 11:38:00,29.3,23.0,30.33,NNW,342,4.0,12.0,77,0.00,,SKC,0.00,VWS V14.01,2013-03-01 17:38:00,
2013-03-01 11:43:00,29.5,22.9,30.34,NNW,330,10.0,16.0,76,0.00,,SKC,0.00,VWS V14.01,2013-03-01 17:43:00,
2013-03-01 11:48:00,29.5,22.6,30.33,North,355,10.0,13.0,75,0.00,,SKC,0.00,VWS V14.01,2013-03-01 17:48:00,
2013-03-01 11:53:00,29.5,22.6,30.34,NNW,335,11.0,11.0,75,0.00,,SKC,0.00,VWS V14.01,2013-03-01 17:53:00,
2013-03-01 11:59:00,29.3,22.1,30.34,NNW,345,9.0,10.0,74,0.00,,SKC,0.00,VWS V14.01,2013-03-01 17:59:00,
2013-03-01 12:04:00,29.6,22.4,30.34,NNW,338,9.0,11.0,74,0.00,,SKC,0.00,VWS V14.01,2013-03-01 18:04:00,
2013-03-01 12:09:00,29.6,22.0,30.34,North,360,11.0,11.0,73,0.00,,SKC,0.00,VWS V14.01,2013-03-01 18:09:00,
2013-03-01 12:14:00,29.6,22.0,30.34,NNW,332,8.0,11.0,73,0.00,,SKC,0.00,VWS V14.01,2013-03-01 18:14:00,
2013-03-01 12:19:00,29.8,22.2,30.34,NNW,333,9.0,9.0,73,0.00,,SKC,0.00,VWS V14.01,2013-03-01 18:19:00,
2013-03-01 12:24:00,30.0,22.7,30.33,NNW,332,10.0,10.0,74,0.00,,SKC,0.00,VWS V14.01,2013-03-01 18:24:00,
2013-03-01 12:29:00,30.1,22.5,30.34,NNW,330,11.0,12.0,73,0.00,,SKC,0.00,VWS V14.01,2013-03-01 18:29:00,
2013-03-01 12:34:00,30.2,22.3,30.34,North,355,9.0,15.0,72,0.00,,SKC,0.00,VWS V14.01,2013-03-01 18:34:00,
2013-03-01 12:39:00,30.4,22.1,30.34,NNW,347,11.0,16.0,71,0.00,,SKC,0.00,VWS V14.01,2013-03-01 18:39:00,
2013-03-01 12:44:00,30.7,22.1,30.34,NNW,345,13.0,15.0,70,0.00,,SKC,0.00,VWS V14.01,2013-03-01 18:44:00,
2013-03-01 12:49:00,30.7,21.8,30.33,NNW,342,12.0,12.0,69,0.00,,SKC,0.00,VWS V14.01,2013-03-01 18:49:00,
2013-03-01 12:54:00,30.7,21.8,30.33,North,360,15.0,15.0,69,0.00,,SKC,0.00,VWS V14.01,2013-03-01 18:54:00,
2013-03-01 12:59:00,30.6,21.6,30.33,NNW,332,12.0,15.0,69,0.00,,SKC,0.00,VWS V14.01,2013-03-01 18:59:00,
2013-03-01 13:04:00,30.6,22.0,30.33,NNW,340,14.0,16.0,70,0.00,,SKC,0.00,VWS V14.01,2013-03-01 19:04:00,
2013-03-01 13:09:00,30.5,21.9,30.33,NNW,330,9.0,13.0,70,0.00,,SKC,0.00,VWS V14.01,2013-03-01 19:09:00,
2013-03-01 13:14:00,30.6,22.0,30.34,NNW,337,15.0,15.0,70,0.00,,SKC,0.00,VWS V14.01,2013-03-01 19:14:00,
2013-03-01 13:19:00,30.7,22.1,30.34,NNW,344,13.0,13.0,70,0.00,,SKC,0.00,VWS V14.01,2013-03-01 19:19:00,
2013-03-01 13:24:00,30.6,22.0,30.33,NNW,338,6.0,15.0,70,0.00,,SKC,0.00,VWS V14.01,2013-03-01 19:24:00,
2013-03-01 13:29:00,30.6,22.3,30.33,NNW,343,9.0,10.0,71,0.00,,SKC,0.00,VWS V14.01,2013-03-01 19:29:00,
2013-03-01 13:34:00,30.5,21.9,30.33,North,351,9.0,14.0,70,0.00,,SKC,0.00,VWS V14.01,2013-03-01 19:34:00,
2013-03-01 13:39:00,30.4,21.8,30.33,NNW,344,5.0,13.0,70,0.00,,SKC,0.00,VWS V14.01,2013-03-01 19:39:00,
2013-03-01 13:44:00,30.4,21.8,30.33,NW,324,18.0,21.0,70,0.00,,SKC,0.00,VWS V14.01,2013-03-01 19:44:00,
2013-03-01 13:49:00,30.5,22.2,30.33,NNW,336,6.0,15.0,71,0.00,,SKC,0.00,VWS V14.01,2013-03-01 19:49:00,
2013-03-01 13:54:00,30.6,22.3,30.33,NNW,340,9.0,16.0,71,0.00,,SKC,0.00,VWS V14.01,2013-03-01 19:54:00,
2013-03-01 13:59:00,30.6,22.0,30.33,North,355,11.0,16.0,70,0.00,,SKC,0.00,VWS V14.01,2013-03-01 19:59:00,
2013-03-01 14:04:00,30.7,22.1,30.33,NNW,346,12.0,18.0,70,0.00,,SKC,0.00,VWS V14.01,2013-03-01 20:04:00,
2013-03-01 14:09:00,30.8,22.2,30.33,NW,313,10.0,17.0,70,0.00,,SKC,0.00,VWS V14.01,2013-03-01 20:09:00,
2013-03-01 14:14:00,30.9,22.3,30.33,NNW,332,13.0,18.0,70,0.00,,SKC,0.00,VWS V14.01,2013-03-01 20:14:00,
2013-03-01 14:20:00,30.9,22.3,30.33,NNW,336,14.0,14.0,70,0.00,,SKC,0.00,VWS V14.01,2013-03-01 20:20:00,
2013-03-01 14:25:00,30.9,22.3,30.33,North,360,12.0,12.0,70,0.00,,SKC,0.00,VWS V14.01,2013-03-01 20:25:00,
2013-03-01 14:30:00,31.1,23.1,30.32,NNW,345,19.0,19.0,72,0.00,,SKC,0.00,VWS V14.01,2013-03-01 20:30:00,
2013-03-01 14:35:00,31.2,22.6,30.33,NNW,338,13.0,19.0,70,0.00,,SKC,0.00,VWS V14.01,2013-03-01 20:35:00,
2013-03-01 14:40:00,31.0,22.4,30.33,NNW,340,8.0,16.0,70,0.00,,SKC,0.00,VWS V14.01,2013-03-01 20:40:00,
2013-03-01 14:45:00,30.8,22.2,30.33,North,10,17.0,20.0,70,0.00,,SKC,0.00,VWS V14.01,2013-03-01 20:45:00,
2013-03-01 14:50:00,30.8,22.5,30.33,NNW,343,15.0,16.0,71,0.00,,SKC,0.00,VWS V14.01,2013-03-01 20:50:00,
2013-03-01 14:55:00,30.9,22.6,30.33,NW,323,13.0,14.0,71,0.00,,SKC,0.00,VWS V14.01,2013-03-01 20:55:00,
2013-03-01 15:00:00,30.8,22.5,30.33,NNW,345,10.0,16.0,71,0.00,,SKC,0.00,VWS V14.01,2013-03-01 21:00:00,
2013-03-01 15:05:00,30.6,22.3,30.33,NNW,331,15.0,17.0,71,0.00,,SKC,0.00,VWS V14.01,2013-03-01 21:05:00,
2013-03-01 15:10:00,30.5,22.6,30.33,NW,316,11.0,13.0,72,0.00,,SKC,0.00,VWS V14.01,2013-03-01 21:10:00,
2013-03-01 15:15:00,30.4,22.1,30.33,NW,325,14.0,18.0,71,0.00,,SKC,0.00,VWS V14.01,2013-03-01 21:15:00,
2013-03-01 15:20:00,30.3,22.4,30.33,NNE,18,13.0,14.0,72,0.00,,SKC,0.00,VWS V14.01,2013-03-01 21:20:00,
2013-03-01 15:25:00,30.3,22.4,30.33,North,360,7.0,11.0,72,0.00,,SKC,0.00,VWS V14.01,2013-03-01 21:25:00,
2013-03-01 15:30:00,30.0,21.4,30.33,NNE,26,15.0,19.0,70,0.00,,SKC,0.00,VWS V14.01,2013-03-01 21:30:00,
2013-03-01 15:35:00,29.8,21.6,30.33,NNW,337,13.0,13.0,71,0.00,,SKC,0.00,VWS V14.01,2013-03-01 21:35:00,
2013-03-01 15:40:00,29.8,21.2,30.33,North,350,14.0,16.0,70,0.00,,SKC,0.00,VWS V14.01,2013-03-01 21:40:00,
2013-03-01 15:45:00,29.9,21.7,30.34,NNW,340,7.0,14.0,71,0.00,,SKC,0.00,VWS V14.01,2013-03-01 21:45:00,
2013-03-01 15:50:00,30.2,21.9,30.34,North,5,6.0,12.0,71,0.00,,SKC,0.00,VWS V14.01,2013-03-01 21:50:00,
2013-03-01 15:55:00,30.1,21.5,30.34,North,360,12.0,15.0,70,0.00,,SKC,0.00,VWS V14.01,2013-03-01 21:55:00,
2013-03-01 16:00:00,29.7,21.1,30.34,NNE,18,10.0,15.0,70,0.00,,SKC,0.00,VWS V14.01,2013-03-01 22:00:00,
2013-03-01 16:05:00,29.4,20.8,30.34,North,355,12.0,18.0,70,0.00,,SKC,0.00,VWS V14.01,2013-03-01 22:05:00,
2013-03-01 16:10:00,29.0,20.1,30.34,North,355,6.0,16.0,69,0.00,,SKC,0.00,VWS V14.01,2013-03-01 22:10:00,
2013-03-01 16:15:00,28.9,20.4,30.34,North,5,11.0,17.0,70,0.00,,SKC,0.00,VWS V14.01,2013-03-01 22:15:00,
2013-03-01 16:21:00,29.0,20.5,30.35,North,360,16.0,16.0,70,0.00,,SKC,0.00,VWS V14.01,2013-03-01 22:21:00,
2013-03-01 16:26:00,29.0,20.5,30.35,NNW,341,11.0,12.0,70,0.00,,SKC,0.00,VWS V14.01,2013-03-01 22:26:00,
2013-03-01 16:31:00,29.3,21.1,30.34,North,350,14.0,15.0,71,0.00,,SKC,0.00,VWS V14.01,2013-03-01 22:31:00,
2013-03-01 16:36:00,29.4,20.8,30.34,North,5,12.0,13.0,70,0.00,,SKC,0.00,VWS V14.01,2013-03-01 22:36:00,
2013-03-01 16:41:00,29.2,20.6,30.35,NNE,18,11.0,11.0,70,0.00,,SKC,0.00,VWS V14.01,2013-03-01 22:41:00,
2013-03-01 16:46:00,29.0,20.1,30.35,NNE,12,5.0,10.0,69,0.00,,SKC,0.00,VWS V14.01,2013-03-01 22:46:00,
2013-03-01 16:51:00,29.0,20.5,30.35,North,355,8.0,10.0,70,0.00,,SKC,0.00,VWS V14.01,2013-03-01 22:51:00,
2013-03-01 16:56:00,29.4,21.2,30.36,North,360,12.0,13.0,71,0.00,,SKC,0.00,VWS V14.01,2013-03-01 22:56:00,
2013-03-01 17:01:00,29.5,20.9,30.36,North,349,11.0,12.0,70,0.00,,SKC,0.00,VWS V14.01,2013-03-01 23:01:00,
2013-03-01 17:06:00,29.3,20.7,30.37,North,5,10.0,13.0,70,0.00,,SKC,0.00,VWS V14.01,2013-03-01 23:06:00,
2013-03-01 17:11:00,28.8,19.9,30.36,North,5,7.0,15.0,69,0.00,,SKC,0.00,VWS V14.01,2013-03-01 23:11:00,
2013-03-01 17:16:00,28.5,20.0,30.37,NNW,346,5.0,12.0,70,0.00,,SKC,0.00,VWS V14.01,2013-03-01 23:16:00,
2013-03-01 17:21:00,28.4,21.8,30.37,North,360,10.0,11.0,76,0.00,,SKC,0.00,VWS V14.01,2013-03-01 23:21:00,
2013-03-01 17:26:00,28.2,20.0,30.37,NNE,22,14.0,18.0,71,0.00,,SKC,0.00,VWS V14.01,2013-03-01 23:26:00,
2013-03-01 17:31:00,27.9,19.7,30.37,North,5,9.0,10.0,71,0.00,,SKC,0.00,VWS V14.01,2013-03-01 23:31:00,
2013-03-01 17:36:00,27.9,19.7,30.37,NNE,13,5.0,11.0,71,0.00,,SKC,0.00,VWS V14.01,2013-03-01 23:36:00,
2013-03-01 17:41:00,27.8,20.0,30.37,NNE,13,15.0,16.0,72,0.00,,SKC,0.00,VWS V14.01,2013-03-01 23:41:00,
2013-03-01 17:46:00,27.7,19.5,30.37,NNE,13,11.0,16.0,71,0.00,,SKC,0.00,VWS V14.01,2013-03-01 23:46:00,
2013-03-01 17:51:00,27.7,19.5,30.37,NNE,15,5.0,12.0,71,0.00,,SKC,0.00,VWS V14.01,2013-03-01 23:51:00,
2013-03-01 17:56:00,27.6,19.8,30.38,NNE,13,13.0,14.0,72,0.00,,SKC,0.00,VWS V14.01,2013-03-01 23:56:00,
2013-03-01 18:01:00,27.6,19.8,30.38,NNE,16,10.0,12.0,72,0.00,,SKC,0.00,VWS V14.01,2013-03-02 00:01:00,
2013-03-01 18:06:00,27.5,19.7,30.38,North,5,10.0,12.0,72,0.00,,SKC,0.00,VWS V14.01,2013-03-02 00:06:00,
2013-03-01 18:11:00,27.5,20.0,30.38,North,5,5.0,7.0,73,0.00,,SKC,0.00,VWS V14.01,2013-03-02 00:11:00,
2013-03-01 18:16:00,27.4,19.9,30.38,NNE,13,6.0,13.0,73,0.00,,SKC,0.00,VWS V14.01,2013-03-02 00:16:00,
2013-03-01 18:21:00,27.3,19.8,30.38,North,11,6.0,11.0,73,0.00,,SKC,0.00,VWS V14.01,2013-03-02 00:21:00,
2013-03-01 18:26:00,27.2,20.0,30.39,North,5,10.0,10.0,74,0.00,,SKC,0.00,VWS V14.01,2013-03-02 00:26:00,
2013-03-01 18:31:00,27.2,20.0,30.38,North,10,7.0,9.0,74,0.00,,SKC,0.00,VWS V14.01,2013-03-02 00:31:00,
2013-03-01 18:36:00,27.1,19.9,30.39,North,5,4.0,5.0,74,0.00,,SKC,0.00,VWS V14.01,2013-03-02 00:36:00,
2013-03-01 18:41:00,27.1,19.9,30.39,North,355,11.0,11.0,74,0.00,,SKC,0.00,VWS V14.01,2013-03-02 00:41:00,
2013-03-01 18:46:00,27.1,19.9,30.39,North,5,9.0,14.0,74,0.00,,SKC,0.00,VWS V14.01,2013-03-02 00:46:00,
2013-03-01 18:51:00,27.0,19.8,30.39,NNE,13,7.0,11.0,74,0.00,,SKC,0.00,VWS V14.01,2013-03-02 00:51:00,
2013-03-01 18:56:00,27.0,19.8,30.39,North,5,5.0,6.0,74,0.00,,SKC,0.00,VWS V14.01,2013-03-02 00:56:00,
2013-03-01 19:01:00,27.0,20.1,30.39,NNE,12,5.0,7.0,75,0.00,,SKC,0.00,VWS V14.01,2013-03-02 01:01:00,
2013-03-01 19:06:00,26.9,20.0,30.39,North,10,5.0,5.0,75,0.00,,SKC,0.00,VWS V14.01,2013-03-02 01:06:00,
2013-03-01 19:11:00,26.9,20.4,30.39,North,5,4.0,9.0,76,0.00,,SKC,0.00,VWS V14.01,2013-03-02 01:11:00,
2013-03-01 19:16:00,26.8,20.3,30.39,NNE,18,6.0,6.0,76,0.00,,SKC,0.00,VWS V14.01,2013-03-02 01:16:00,
2013-03-01 19:21:00,26.7,20.2,30.39,North,9,6.0,7.0,76,0.00,,SKC,0.00,VWS V14.01,2013-03-02 01:21:00,
2013-03-01 19:26:00,26.7,20.2,30.39,North,10,3.0,7.0,76,0.00,,SKC,0.00,VWS V14.01,2013-03-02 01:26:00,
2013-03-01 19:32:00,26.6,20.1,30.39,NNE,13,6.0,6.0,76,0.00,,SKC,0.00,VWS V14.01,2013-03-02 01:32:00,
2013-03-01 19:37:00,26.6,20.1,30.40,NNE,13,5.0,6.0,76,0.00,,SKC,0.00,VWS V14.01,2013-03-02 01:37:00,
2013-03-01 19:42:00,26.6,20.1,30.40,North,5,5.0,7.0,76,0.00,,SKC,0.00,VWS V14.01,2013-03-02 01:42:00,
2013-03-01 19:47:00,26.5,20.0,30.39,North,5,5.0,6.0,76,0.00,,SKC,0.00,VWS V14.01,2013-03-02 01:47:00,
2013-03-01 19:52:00,26.5,20.0,30.40,North,5,6.0,8.0,76,0.00,,SKC,0.00,VWS V14.01,2013-03-02 01:52:00,
2013-03-01 19:57:00,26.4,20.2,30.40,North,5,3.0,3.0,77,0.00,,SKC,0.00,VWS V14.01,2013-03-02 01:57:00,
2013-03-01 20:02:00,26.3,20.1,30.40,North,5,6.0,10.0,77,0.00,,SKC,0.00,VWS V14.01,2013-03-02 02:02:00,
2013-03-01 20:07:00,26.3,20.1,30.39,NNE,15,5.0,7.0,77,0.00,,SKC,0.00,VWS V14.01,2013-03-02 02:07:00,
2013-03-01 20:12:00,26.3,20.1,30.40,NNE,19,8.0,11.0,77,0.00,,SKC,0.00,VWS V14.01,2013-03-02 02:12:00,
2013-03-01 20:17:00,26.2,19.7,30.40,North,355,8.0,12.0,76,0.00,,SKC,0.00,VWS V14.01,2013-03-02 02:17:00,
2013-03-01 20:22:00,26.2,19.7,30.40,NNE,12,11.0,11.0,76,0.00,,SKC,0.00,VWS V14.01,2013-03-02 02:22:00,
2013-03-01 20:27:00,26.1,19.6,30.40,NNE,13,6.0,8.0,76,0.00,,SKC,0.00,VWS V14.01,2013-03-02 02:27:00,
2013-03-01 20:32:00,26.0,19.8,30.40,North,5,7.0,7.0,77,0.00,,SKC,0.00,VWS V14.01,2013-03-02 02:32:00,
2013-03-01 20:37:00,25.9,19.7,30.40,NNE,12,6.0,11.0,77,0.00,,SKC,0.00,VWS V14.01,2013-03-02 02:37:00,
2013-03-01 20:42:00,25.8,19.6,30.40,North,9,5.0,10.0,77,0.00,,SKC,0.00,VWS V14.01,2013-03-02 02:42:00,
2013-03-01 20:47:00,25.7,19.5,30.40,NNE,18,7.0,12.0,77,0.00,,SKC,0.00,VWS V14.01,2013-03-02 02:47:00,
2013-03-01 20:52:00,25.7,19.2,30.40,North,11,6.0,10.0,76,0.00,,SKC,0.00,VWS V14.01,2013-03-02 02:52:00,
2013-03-01 20:57:00,25.6,19.4,30.40,North,355,7.0,8.0,77,0.00,,SKC,0.00,VWS V14.01,2013-03-02 02:57:00,
2013-03-01 21:02:00,25.5,19.3,30.40,North,5,3.0,3.0,77,0.00,,SKC,0.00,VWS V14.01,2013-03-02 03:02:00,
2013-03-01 21:07:00,25.4,19.2,30.41,NNE,16,9.0,10.0,77,0.00,,SKC,0.00,VWS V14.01,2013-03-02 03:07:00,
2013-03-01 21:13:00,25.3,19.1,30.41,North,11,10.0,10.0,77,0.00,,SKC,0.00,VWS V14.01,2013-03-02 03:13:00,
2013-03-01 21:18:00,25.2,19.0,30.41,North,5,7.0,7.0,77,0.00,,SKC,0.00,VWS V14.01,2013-03-02 03:18:00,
2013-03-01 21:23:00,25.1,18.6,30.41,NNE,15,6.0,7.0,76,0.00,,SKC,0.00,VWS V14.01,2013-03-02 03:23:00,
2013-03-01 21:28:00,25.0,18.8,30.40,NNE,26,10.0,10.0,77,0.00,,SKC,0.00,VWS V14.01,2013-03-02 03:28:00,
2013-03-01 21:33:00,24.9,18.4,30.41,North,11,5.0,5.0,76,0.00,,SKC,0.00,VWS V14.01,2013-03-02 03:33:00,
2013-03-01 21:38:00,24.8,18.3,30.40,North,355,11.0,11.0,76,0.00,,SKC,0.00,VWS V14.01,2013-03-02 03:38:00,
2013-03-01 21:43:00,24.7,18.5,30.41,North,5,6.0,7.0,77,0.00,,SKC,0.00,VWS V14.01,2013-03-02 03:43:00,
2013-03-01 21:48:00,24.7,18.5,30.41,North,5,9.0,10.0,77,0.00,,SKC,0.00,VWS V14.01,2013-03-02 03:48:00,
2013-03-01 21:53:00,24.7,18.5,30.41,North,355,5.0,5.0,77,0.00,,SKC,0.00,VWS V14.01,2013-03-02 03:53:00,
2013-03-01 21:58:00,24.6,18.7,30.41,North,355,8.0,10.0,78,0.00,,SKC,0.00,VWS V14.01,2013-03-02 03:58:00,
2013-03-01 22:03:00,24.6,18.7,30.41,North,355,4.0,5.0,78,0.00,,SKC,0.00,VWS V14.01,2013-03-02 04:03:00,
2013-03-01 22:08:00,24.6,18.7,30.41,North,5,4.0,4.0,78,0.00,,SKC,0.00,VWS V14.01,2013-03-02 04:08:00,
2013-03-01 22:13:00,24.6,18.7,30.41,North,10,8.0,10.0,78,0.00,,SKC,0.00,VWS V14.01,2013-03-02 04:13:00,
2013-03-01 22:18:00,24.5,18.3,30.41,North,5,6.0,7.0,77,0.00,,SKC,0.00,VWS V14.01,2013-03-02 04:18:00,
2013-03-01 22:23:00,24.5,18.6,30.42,North,11,3.0,6.0,78,0.00,,SKC,0.00,VWS V14.01,2013-03-02 04:23:00,
2013-03-01 22:28:00,24.4,18.2,30.42,NNE,18,4.0,8.0,77,0.00,,SKC,0.00,VWS V14.01,2013-03-02 04:28:00,
2013-03-01 22:33:00,24.3,18.1,30.41,NNE,26,9.0,12.0,77,0.00,,SKC,0.00,VWS V14.01,2013-03-02 04:33:00,
2013-03-01 22:38:00,24.2,18.0,30.42,NNE,23,4.0,6.0,77,0.00,,SKC,0.00,VWS V14.01,2013-03-02 04:38:00,
2013-03-01 22:43:00,24.0,17.9,30.41,North,11,8.0,9.0,77,0.00,,SKC,0.00,VWS V14.01,2013-03-02 04:43:00,
2013-03-01 22:48:00,23.9,17.8,30.41,NNE,23,7.0,7.0,77,0.00,,SKC,0.00,VWS V14.01,2013-03-02 04:48:00,
2013-03-01 22:53:00,23.8,18.0,30.41,NNE,13,5.0,14.0,78,0.00,,SKC,0.00,VWS V14.01,2013-03-02 04:53:00,
2013-03-01 22:58:00,23.6,17.5,30.42,North,11,7.0,10.0,77,0.00,,SKC,0.00,VWS V14.01,2013-03-02 04:58:00,
2013-03-01 23:00:00,23.6,17.5,30.42,NNE,17,10.0,10.0,77,0.00,,SKC,0.00,VWS V14.01,2013-03-02 05:00:00,
2013-03-01 23:01:00,23.6,17.5,30.42,NNE,16,9.0,9.0,77,0.00,,SKC,0.00,VWS V14.01,2013-03-02 05:01:00,
2013-03-01 23:03:00,23.5,17.4,30.42,NNE,14,7.0,12.0,77,0.00,,SKC,0.00,VWS V14.01,2013-03-02 05:03:00,
2013-03-01 23:05:00,23.5,17.4,30.42,NNE,18,5.0,5.0,77,0.00,,SKC,0.00,VWS V14.01,2013-03-02 05:05:00,
2013-03-01 23:10:00,23.5,17.7,30.42,North,5,5.0,5.0,78,0.00,,SKC,0.00,VWS V14.01,2013-03-02 05:10:00,
2013-03-01 23:15:00,23.4,17.6,30.41,North,5,4.0,5.0,78,0.00,,SKC,0.00,VWS V14.01,2013-03-02 05:15:00,
2013-03-01 23:21:00,23.3,17.5,30.41,North,11,4.0,4.0,78,0.00,,SKC,0.00,VWS V14.01,2013-03-02 05:21:00,
2013-03-01 23:26:00,23.1,17.3,30.41,North,5,4.0,4.0,78,0.00,,SKC,0.00,VWS V14.01,2013-03-02 05:26:00,
2013-03-01 23:31:00,22.9,17.1,30.41,North,5,4.0,5.0,78,0.00,,SKC,0.00,VWS V14.01,2013-03-02 05:31:00,
2013-03-01 23:36:00,22.6,16.8,30.41,North,5,3.0,5.0,78,0.00,,SKC,0.00,VWS V14.01,2013-03-02 05:36:00,
2013-03-01 23:41:00,22.4,16.6,30.41,North,5,6.0,6.0,78,0.00,,SKC,0.00,VWS V14.01,2013-03-02 05:41:00,
2013-03-01 23:46:00,22.1,16.3,30.40,North,5,4.0,5.0,78,0.00,,SKC,0.00,VWS V14.01,2013-03-02 05:46:00,
2013-03-01 23:51:00,21.9,16.4,30.41,North,5,3.0,3.0,79,0.00,,SKC,0.00,VWS V14.01,2013-03-02 05:51:00,
2013-03-01 23:56:00,21.7,16.2,30.40,North,5,2.0,3.0,79,0.00,,SKC,0.00,VWS V14.01,2013-03-02 05:56:00,